Home > Weather > Khon Kaen > Past weeks

Flag for Thailand Past Weather in Khon Kaen, Thailand — Yesterday and Last 2 Weeks

Now
79 °F

Partly cloudy.


Feels Like: 83 °F
Forecast: 76 / 90 °F
Wind: No wind

Location: Khon Kaen Airport

Current Time: Jul 30, 2016 at 11:56:11 PM

Latest Report: Jul 30, 2016 at 11:00 PM


Visibility: N/A

Pressure: 29.83 "Hg

Humidity: 94%

Dew Point: 77 °F

Location of Khon KaenLocation

Past Weather in Khon Kaen — Graph

°F

Khon Kaen Temperature Yesterday

Maximum temperature yesterday: 84 °F (at 4:00 PM)
Minimum temperature yesterday: 75 °F (at 12:00 AM)
Average temperature yesterday: 78 °F

High & Low Weather Summary for the Past Weeks

 TemperatureHumidityPressure
High99 °F (Jul 18, 3:00 PM)100% (Jul 16, 5:00 AM)29.89 "Hg (Jul 16, 5:00 AM)
Low72 °F (Jul 18, 7:00 PM)47% (Jul 17, 3:00 PM)29.62 "Hg (Jul 18, 4:00 PM)
Average82 °F84%29.77 "Hg
* Reported Jul 15 10:00 PM — Jul 30 10:00 PM, Khon Kaen, Weather by CustomWeather, © 2016

Note: Actual official high and low records may vary slightly from our data, if they occured in-between our weather recording intervals... More about our weather records

Advertising

Khon Kaen Weather History for the Previous 24 Hours

Scroll right to see more
 ConditionsComfort  
Time TempWeatherWind HumidityBarometerVisibility
10:00 PM
Sat, Jul 30
81 °FPassing clouds.1 mph84%29.83 "HgN/A
9:00 PM81 °FPartly cloudy.2 mph89%29.80 "HgN/A
8:00 PM81 °FPassing clouds.3 mph89%29.77 "HgN/A
7:00 PM81 °FPassing clouds.5 mph84%29.74 "HgN/A
6:00 PM84 °FPartly sunny.2 mph79%29.71 "HgN/A
5:00 PM88 °FScattered clouds.5 mph70%29.71 "HgN/A
4:00 PM88 °FScattered clouds.3 mph70%29.71 "HgN/A
3:00 PM88 °FPartly sunny.7 mph70%29.74 "HgN/A
2:00 PM90 °FPartly sunny.3 mph63%29.74 "HgN/A
1:00 PM88 °FPartly sunny.3 mph70%29.77 "HgN/A
12:00 PM86 °FPartly sunny.5 mph75%29.80 "HgN/A
11:00 AM88 °FScattered clouds.3 mph70%29.80 "HgN/A
10:00 AM86 °FScattered clouds.5 mph75%29.83 "HgN/A
9:00 AM82 °FScattered clouds.3 mph79%29.83 "HgN/A
8:00 AM79 °FBroken clouds.2 mph89%29.83 "HgN/A
7:00 AM75 °FPartly sunny.1 mph100%29.80 "HgN/A
6:00 AM75 °FBroken clouds.2 mph100%29.80 "HgN/A
5:00 AM75 °FPartly cloudy.2 mph94%29.77 "HgN/A
4:00 AM75 °FPartly cloudy.3 mph100%29.77 "HgN/A
3:00 AM75 °FPassing clouds.5 mph100%29.77 "HgN/A
2:00 AM75 °FPartly cloudy.2 mph100%29.77 "HgN/A
1:00 AM75 °FPartly cloudy.3 mph100%29.80 "HgN/A
12:00 AM75 °FPartly cloudy.2 mph100%29.80 "HgN/A
11:00 PM
Fri, Jul 29
77 °FPartly cloudy.1 mph94%29.83 "HgN/A
Weather by CustomWeather, © 2016

See weather overviewHow to use our weather pages